STARLINK-30103, 56290

Orbit data source: Space-Track

STARLINK-30103, 56290 is a payload satellite owned by SpaceX/Seattle (US) in LEO that was launched on Wed, 19 Apr 2023 UTC via an FALCON 9 launch vehicle from the Air Force Eastern Test Range (AFETR). Payload-class satellites include a variety of spacecraft equipped with specific instruments for various scientific and technological missions. These include communications satellites like Starlink; space stations such as the ISS; scientific satellites like the Hubble; Earth observation satellites from companies like Planet Labs, Umbra, and HawkEye 360; GPS; miniature CubeSats for education and research; and military/defense satellites.

Loading next visibility...
Identifier
56290, 2023-056E
Orbit
LEO
Country
Flag of USUS
Related business
Manufacturer
SpaceX/Seattle
Mission
Operational Commercial Communications
Bus & Motor
STARLINK V2M, Unknown motor
Mass
730 kg wet, ~700 kg dry
Launch date (UTC)
2023-04-19 (3 years ago)
Launch vehicle
FALCON 9
Launch site
Air Force Eastern Test Range (AFETR)
Object type
Payload
Rocket body
Debris
Shape & HBR
Box + 2 Pan, 17.7 m
Radar Cross Section
33.884 m², Large (>1 m²)

Expand to show TLE details & history
Last TLE update: 3 days ago

TLE from 3 days ago
0 STARLINK-30103
1 56290U 23056E   26170.52230850 -.00000331  00000-0 -25064-5 0  9990
2 56290  43.0025 353.8508 0001511 275.4565  84.6114 15.27576137175610
Epoch: 2026-06-19T12:32Z
TLE epoch observation values (Epoch: 2026-06-19T12:32:07.454Z)
Latitude
-0.00003°
Longitude
-101.93037°
Altitude
482.739 km
Speed
7.626 km/s
True Right ascension
23h 35m 24s
True Declination
0° 00' 00"
Sunlit
Object was in daylight at epoch
Visualization orbit readout
Latitude
Unknown
Longitude
Unknown
Altitude
Unknown
Speed
Unknown
Apparent Right ascension
Unknown
Apparent Declination
Unknown
Sunlit
N/A
Visualization observer readout
Local Sidereal Time
21:39:22
Azimuth
Unknown
Elevation
Unknown
Doppler factor
Unknown
Orbital elements
Apogee altitude
486.042 km
Perigee altitude
483.968 km
Semi-major axis
6,863.142 km
Eccentricity
0.00015
Inclination
43.0025°
RAAN
353.8508°
Arg. of periapsis
275.4565°
True anomaly
84.62864°
Mean anomaly
84.6114°
Eccentric anomaly
84.62002°
Mean motion
3.81732 °/min
Orbital period
94.31 mins
BSTAR
-0.0000025064
Loading maneuver chart data...
Computing Atmospheric mass density...
Loading historical data...
Loading historical data...
Loading historical data...
Loading historical data...
Loading historical data...
Loading historical data...
Loading historical data...

Documentation

Showing up to 5 results
|